Theta_e
310 308 307 309 306 305 306 308 309 309 310 311 310 308 307 311 311 312 313 313 313 313 313 313 313 314 314 314 315 317 319 319 324 329 332 334 333 332 332 331 330 329 328 326
308 308 307 306 306 308 308 309 310 309 310 310 308 308 307 307 309 311 312 312 311 312 313 312 313 313 313 313 314 314 315 316 318 322 324 330 332 332 331 330 331 331 330 330
308 308 306 307 307 308 308 308 309 309 308 306 305 305 304 305 307 309 309 309 309 311 311 312 313 313 313 312 312 314 314 314 315 317 323 327 331 331 331 330 331 331 332 332
308 307 307 308 308 306 308 307 308 308 308 309 305 305 305 306 304 305 307 310 311 312 313 313 313 314 314 314 314 314 314 314 314 314 319 321 322 323 320 323 325 329 331 332
308 309 308 309 309 308 309 307 308 308 306 308 308 306 305 303 308 307 306 309 311 313 313 314 314 313 313 313 313 313 314 314 314 313 313 316 320 322 324 324 326 327 329 331
308 309 309 308 307 309 306 305 304 304 303 306 305 305 304 305 307 308 306 311 312 312 313 313 314 314 314 314 314 313 313 314 315 314 313 313 315 317 321 324 326 326 328 329
310 310 309 309 309 308 306 306 307 307 306 306 304 305 304 306 307 306 307 310 312 312 313 313 313 314 314 314 314 314 314 313 313 314 314 314 315 318 320 323 326 328 329 330
309 311 309 308 309 309 306 307 307 305 305 306 305 307 306 305 307 308 310 311 312 312 312 313 313 313 314 314 314 313 314 314 313 312 312 313 314 315 316 317 319 322 322 322
308 309 308 308 307 309 309 307 304 305 293 304 305 305 306 305 306 308 309 311 312 312 312 312 313 313 314 314 314 314 314 313 313 314 314 314 313 313 313 312 312 312 313 313
308 308 308 308 308 308 308 305 309 304 303 304 305 306 305 308 307 306 307 310 312 313 313 313 313 313 312 313 313 313 313 313 313 313 313 313 313 313 313 312 312 312 312 312
305 308 309 308 308 308 308 308 306 306 306 305 304 305 303 307 306 306 308 311 311 312 312 312 312 313 313 313 313 313 313 313 313 313 313 313 312 312 312 312 312 312 312 312
306 307 309 309 307 306 307 307 307 307 306 303 305 306 304 306 306 308 309 310 311 311 311 312 312 312 312 312 312 311 312 312 313 313 313 313 313 313 313 312 312 311 311 311
307 307 305 310 309 307 308 307 306 305 305 305 308 307 304 305 306 308 308 309 310 311 311 311 311 311 310 310 310 310 311 311 311 311 311 312 312 312 312 312 312 312 312 311
309 308 308 309 310 308 310 310 307 308 308 308 307 307 306 305 307 307 308 309 309 309 310 310 310 309 309 309 309 309 309 309 309 309 308 308 308 308 309 309 309 310 311 311
310 312 311 310 310 311 311 310 309 308 309 310 308 307 308 306 307 307 308 308 308 308 308 308 307 307 307 307 308 308 308 308 307 307 307 308 307 307 306 307 308 308 308 309
308 312 310 310 311 309 312 310 310 311 311 311 311 311 309 309 308 306 307 306 305 305 305 305 305 305 305 305 305 305 305 305 305 305 305 306 307 307 307 307 306 307 307 307
310 309 311 312 307 310 313 309 308 308 308 309 312 309 306 307 307 308 307 306 305 303 303 303 303 303 304 304 304 303 303 302 301 301 301 301 301 301 302 304 306 306 306 306
306 305 305 302 305 312 305 298 302 307 307 307 306 306 306 307 307 306 305 304 302 302 302 301 301 301 302 302 302 302 301 300 300 300 299 299 299 299 299 300 302 303 304 304
304 303 299 306 304 301 302 300 297 302 304 304 305 303 304 303 302 302 303 300 299 299 300 300 301 302 302 301 301 300 300 299 299 299 298 298 298 298 298 297 298 299 300 301
301 302 305 293 302 301 301 297 297 299 299 298 303 301 299 299 300 297 303 301 298 300 301 302 301 299 298 298 298 298 298 298 298 298 298 298 298 297 297 296 297 298 299 299
303 303 304 291 295 294 295 297 298 296 296 298 302 302 299 296 299 300 304 301 298 300 300 299 299 299 298 298 298 297 297 297 297 297 297 297 297 296 296 295 296 298 299 298
306 305 303 296 298 303 296 297 299 298 299 301 300 299 298 298 297 297 297 297 299 300 299 298 298 298 297 296 296 296 296 296 295 295 296 296 296 296 295 295 295 297 297 297
303 301 301 301 302 297 296 299 300 300 301 299 299 297 296 296 296 296 296 296 296 297 297 297 296 295 295 295 295 295 295 295 295 295 296 296 295 295 295 295 295 296 296 295
295 295 297 299 297 297 297 299 300 300 299 297 297 296 296 296 296 296 295 296 296 297 297 297 296 295 295 295 295 295 295 295 295 296 295 294 294 295 295 294 294 294 294 293
294 294 292 292 294 296 297 298 298 297 297 296 296 295 295 295 295 295 295 294 296 296 297 296 295 295 295 295 295 294 293 294 295 295 294 294 294 293 293 293 293 293 292 290
293 293 296 294 296 297 298 298 298 298 297 296 295 294 293 293 292 292 293 293 294 296 296 295 294 294 294 295 294 293 293 293 293 292 293 293 293 292 292 292 292 290 289 288
Wind_Speed
3 4 7 8 5 3 6 4 4 2 1 3 4 6 12 22 18 22 22 21 20 23 24 22 23 25 25 25 28 32 32 33 35 37 37 39 39 36 35 35 33 31 29 28
4 5 7 7 6 5 4 4 3 1 2 2 4 9 10 13 16 20 23 26 21 16 14 14 12 16 23 24 24 26 30 32 33 36 36 39 39 39 37 36 37 36 35 34
6 2 11 6 4 6 2 5 4 3 2 4 5 9 6 5 6 10 10 11 10 10 8 4 2 2 4 15 21 23 24 29 33 35 37 39 42 43 42 42 42 40 39 39
3 4 7 5 4 5 6 7 4 6 3 2 3 5 6 5 9 8 13 12 13 15 15 15 14 11 8 3 6 13 17 22 26 32 38 40 40 41 36 36 36 39 41 42
5 8 6 4 5 7 4 7 5 3 4 4 3 2 7 5 4 5 11 13 15 16 17 16 14 12 12 10 8 4 5 11 16 23 29 35 39 40 40 39 38 37 37 38
3 2 3 6 4 2 9 7 7 5 3 1 5 5 5 2 3 2 7 14 20 25 27 28 27 23 20 17 13 11 9 4 5 10 14 21 26 31 35 37 38 37 36 35
2 1 1 4 7 4 4 6 2 2 2 5 1 3 8 3 1 2 7 17 20 22 26 28 28 28 28 28 27 24 18 13 9 6 4 7 12 18 22 26 30 32 33 34
7 4 8 4 6 9 6 7 5 7 4 2 3 5 5 1 7 13 17 18 21 22 21 22 22 22 22 23 23 23 25 22 16 12 10 8 9 11 15 19 23 26 28 29
5 3 1 1 3 7 6 5 5 7 3 3 4 6 3 5 6 15 13 18 20 19 18 18 18 17 17 18 19 19 18 17 15 15 13 10 9 9 9 12 16 19 22 23
7 4 2 1 4 4 4 8 4 3 3 3 3 4 4 6 8 4 8 16 16 17 17 14 13 12 14 15 15 14 16 16 16 13 11 8 6 8 11 13 15 16 16 18
5 4 1 3 6 8 3 3 3 5 4 5 2 5 5 10 9 8 9 11 10 11 11 10 11 12 13 12 12 13 13 13 12 12 12 12 12 13 15 18 19 21 21 21
6 5 4 7 2 2 1 6 6 5 5 1 3 5 4 10 14 12 9 7 7 8 8 7 7 9 11 13 14 14 13 12 13 14 16 18 19 21 22 24 26 26 27 27
7 3 3 3 3 2 4 4 4 5 3 7 6 5 3 11 10 7 7 7 9 7 6 7 9 12 14 15 16 16 16 16 16 17 17 17 19 21 23 26 28 30 31 32
3 3 8 11 4 6 6 5 5 6 4 5 6 7 6 6 5 7 8 8 7 8 9 9 10 13 15 17 19 20 20 21 22 23 24 25 25 24 22 23 25 27 30 33
3 5 4 4 5 3 3 7 9 10 13 10 10 11 18 14 7 15 10 10 8 7 7 9 12 14 15 17 19 21 23 26 27 29 30 30 28 28 29 28 28 28 28 28
3 3 3 3 0 5 1 5 7 2 2 1 3 4 6 5 14 12 11 10 8 7 7 9 11 13 16 18 20 21 23 25 27 29 30 31 32 33 32 31 31 31 31 32
2 4 2 4 2 5 5 12 8 5 4 6 7 6 8 4 6 6 7 5 5 5 6 8 10 12 14 17 19 20 21 22 24 26 28 30 32 34 34 35 35 34 32 33
5 4 2 2 2 3 4 4 3 7 4 8 3 5 9 10 10 9 7 7 4 1 4 6 9 10 13 16 18 20 23 25 28 29 31 33 35 37 38 39 39 38 37 36
4 4 3 4 3 5 3 5 7 7 8 12 8 9 10 12 9 6 10 9 3 3 6 8 9 11 13 15 17 20 21 23 25 27 28 31 34 37 38 39 41 42 43 42
3 6 2 4 5 7 4 2 8 6 5 4 12 11 16 14 3 4 17 6 6 9 8 8 9 11 13 15 17 21 23 25 27 28 30 31 33 35 38 39 40 41 41 43
4 2 6 2 3 7 6 6 6 6 7 3 8 16 19 5 5 8 11 7 10 9 9 11 13 15 16 18 21 23 25 27 29 30 31 32 33 35 37 39 40 40 40 39
8 7 4 3 2 9 14 4 9 4 5 10 13 12 10 8 5 1 3 5 7 10 13 16 16 16 18 21 24 26 27 30 31 33 34 34 34 35 36 37 39 39 38 38
4 5 6 8 6 2 19 4 8 9 18 13 12 9 5 1 2 6 9 11 12 14 17 17 19 20 20 24 27 29 31 33 33 33 33 33 34 35 35 37 37 37 36 35
3 3 3 3 3 5 17 8 12 14 18 14 10 6 4 8 11 14 16 16 17 18 19 20 21 23 25 28 30 32 33 34 34 34 33 34 34 34 34 34 34 33 31 31
5 11 6 2 2 9 11 13 19 19 15 10 5 4 6 11 14 18 21 20 20 19 20 21 23 27 30 32 34 33 34 34 34 35 34 33 33 33 33 32 30 31 28 26
9 6 5 5 17 6 16 22 19 17 14 9 7 9 11 15 18 21 23 24 24 24 24 25 29 32 33 34 35 35 34 33 34 36 36 35 34 32 30 29 27 24 22 20
Wind_Direction
117 112 186 196 170 123 135 130 164 227 341 157 227 268 279 288 288 279 279 278 280 283 283 278 267 255 250 247 247 248 249 247 245 243 244 244 245 248 251 257 261 260 261 254
59 208 206 122 143 117 121 128 181 2 49 120 9 286 268 276 268 275 285 292 299 302 298 294 289 254 245 244 246 247 247 249 249 247 248 247 249 251 257 260 261 262 262 264
151 223 144 130 143 135 142 161 172 149 40 56 353 306 326 301 295 323 315 303 325 330 344 7 332 274 255 241 242 246 250 251 251 251 249 248 247 251 253 255 257 260 261 262
185 134 140 129 168 131 174 199 143 132 93 217 19 276 309 320 328 9 38 69 62 63 64 66 68 70 64 57 250 251 248 248 250 251 250 251 253 253 261 263 265 264 265 265
219 163 141 138 194 165 197 122 125 91 99 87 327 56 271 8 30 11 22 43 54 58 61 60 56 49 41 37 31 6 285 260 255 252 252 253 255 259 263 266 269 270 271 270
141 123 148 163 82 107 153 78 53 55 85 337 231 152 281 211 182 48 24 51 68 74 74 72 70 67 59 50 42 34 28 350 269 255 253 256 259 261 264 268 271 275 276 276
108 160 160 133 87 43 83 88 22 0 3 219 1 109 240 244 341 36 88 74 63 65 70 68 65 62 59 56 51 44 36 29 21 7 324 282 274 271 272 273 275 277 279 279
151 207 172 188 166 164 181 158 157 192 195 232 69 226 259 88 106 113 104 78 64 64 70 65 58 54 53 51 50 48 46 42 38 29 16 355 324 303 291 285 283 281 281 281
144 228 65 77 139 148 187 190 156 106 17 56 208 276 310 106 68 107 85 68 62 63 70 62 57 50 41 35 28 25 28 29 32 38 41 33 23 1 335 310 295 293 290 288
201 119 5 137 102 37 156 155 81 5 134 234 276 281 208 151 151 152 66 65 67 70 69 64 59 37 20 12 11 11 7 4 2 2 1 359 343 333 328 324 319 310 306 301
139 103 293 124 213 160 134 177 77 126 147 164 162 252 211 168 162 144 102 77 66 60 55 43 29 21 19 15 10 7 0 359 350 343 336 328 317 310 308 307 305 302 304 303
185 124 157 202 253 222 233 182 154 149 210 213 146 260 260 149 153 118 112 92 87 85 77 51 28 16 9 13 14 12 6 355 350 341 333 328 322 316 312 308 305 300 297 294
182 195 81 9 351 359 203 187 137 107 89 192 143 252 52 145 130 122 127 123 113 90 65 56 51 44 34 27 20 13 9 8 0 351 342 332 323 316 311 306 302 302 300 299
115 114 184 211 169 140 184 181 178 151 169 190 218 146 226 216 163 173 155 137 110 89 70 53 41 27 15 8 6 4 359 355 351 349 345 342 341 338 331 323 316 307 301 300
127 185 118 52 75 106 147 171 176 193 214 191 214 186 200 198 186 174 157 142 122 98 69 38 18 11 2 356 355 350 346 342 340 340 338 337 338 339 336 331 328 324 320 316
3 119 117 146 236 50 154 203 180 186 161 148 171 241 222 161 140 156 164 153 124 87 52 28 9 357 352 348 343 338 334 333 334 334 335 334 331 329 328 329 327 323 322 321
74 125 111 201 55 80 281 221 183 176 191 148 212 184 154 157 176 184 175 148 111 79 33 7 357 347 339 334 331 329 327 328 329 329 331 330 328 328 329 326 322 320 320 316
137 101 49 138 109 196 277 17 126 188 196 224 184 160 170 177 187 186 182 167 147 101 342 334 326 321 318 319 321 322 323 324 325 325 327 327 326 325 324 321 321 321 319 315
152 123 106 153 209 316 258 200 163 169 244 215 207 160 169 157 166 208 188 158 126 332 307 303 305 310 313 317 318 320 322 322 321 322 324 325 325 323 322 321 319 318 316 316
70 91 136 141 159 207 224 231 156 123 279 208 195 161 155 149 151 251 182 182 325 315 303 303 308 312 318 321 321 320 319 317 316 316 318 318 318 317 316 316 315 314 314 313
138 144 168 184 190 286 242 200 167 106 237 161 164 151 150 135 136 107 177 256 296 290 286 297 301 304 309 311 314 315 315 313 313 312 312 313 314 315 315 315 314 312 313 312
175 161 173 126 114 259 178 133 167 181 121 134 125 129 131 127 134 161 271 293 290 274 289 300 299 304 308 310 311 310 310 309 309 309 310 310 310 311 312 313 313 312 312 312
207 191 175 182 205 188 172 132 181 160 146 144 146 138 141 155 307 313 315 309 304 298 299 299 300 305 310 309 307 306 307 307 307 307 309 309 310 310 311 312 312 311 312 312
264 181 159 113 187 191 175 142 155 159 153 150 161 182 247 295 309 309 308 308 301 297 295 291 292 299 307 307 305 304 304 304 304 305 307 311 312 311 311 311 311 311 312 311
184 154 164 261 117 131 176 181 170 165 166 166 184 240 284 294 299 300 301 301 298 296 292 290 291 300 305 306 305 304 303 300 300 302 304 308 311 312 312 310 311 311 313 313
187 163 174 214 171 158 187 182 179 186 194 218 256 280 286 288 290 291 293 294 293 293 294 294 299 301 301 301 301 302 299 299 302 302 303 305 307 308 308 307 311 310 312 316